Location: Peterborough
(44.3091°N, 78.3197°W)
Time: 05:59:48
(UTC-05:00)

Explorer 11/Cluster Stage 4 - Pass Details

Date: 06 October 2023
Orbit: 465 x 1228 km, 28.8° (Epoch: 30 November)

Event Time Altitude Azimuth Distance (km) Brightness Sun altitude
Rises 19:30:56 0° 239° (WSW) 3,159 10.8 -9.0°
Reaches altitude 10° 19:33:58 10° 220° (SW) 2,384 9.6 -9.5°
Maximum altitude 19:37:44 18° 179° (S) 2,050 8.7 -10.2°
Drops below altitude 10° 19:41:59 10° 139° (SE) 2,748 9.0 -11.0°
Enters shadow 19:43:27 - 131° (SE) 3,143 9.2 -11.2°
